Location: Hylvaty SDH
(49.9612°N, 16.4057°E)
Time: 03:30:53
(UTC+01:00)

Vanguard 3 - All Passes

Search period start: 25 January 2020 00:00
Search period end: 04 February 2020 00:00
Orbit: 507 x 3263 km, 33.4° (Epoch: 24 January)

Date Brightness Start Highest point End Pass type
(mag) Time Alt. Az. Time Alt. Az. Time Alt. Az.
25 Jan - 14:50:52 10° S 15:02:05 19° SE 15:13:08 10° ESE daylight
25 Jan - 16:58:41 10° SW 17:15:20 36° SSE 17:29:36 10° ESE visible
25 Jan - 19:11:58 10° WSW 19:29:25 43° S 19:42:04 10° ESE visible
25 Jan - 21:28:05 10° W 21:42:26 33° SSW 21:52:09 10° SSE visible
25 Jan - 23:47:49 10° WSW 23:53:08 13° SW 23:57:33 10° SSW visible
26 Jan - 13:44:24 10° SE 13:47:23 11° SE 13:50:23 10° ESE daylight
26 Jan - 15:44:45 10° SSW 15:59:41 29° SSE 16:13:55 10° E daylight
26 Jan - 17:55:58 10° SW 18:13:39 42° S 18:27:54 10° ESE visible
26 Jan - 20:10:51 10° WSW 20:27:34 40° SSW 20:39:16 10° SE visible
26 Jan - 22:28:16 10° W 22:39:33 24° SW 22:47:41 10° S visible
27 Jan - 14:32:25 10° S 14:44:27 21° SE 14:56:48 10° E daylight
27 Jan - 16:40:53 10° SW 16:57:46 38° SSE 17:13:01 10° ESE visible
27 Jan - 18:54:12 10° WSW 19:12:04 44° S 19:25:39 10° ESE visible
27 Jan - 21:10:19 10° W 21:25:17 33° SSW 21:35:46 10° SSE visible
27 Jan - 23:30:44 10° WSW 23:36:04 13° SW 23:40:36 10° SSW visible
28 Jan - 13:23:29 10° SSE 13:29:46 13° SE 13:36:19 10° ESE daylight
28 Jan - 15:26:55 10° SSW 15:42:02 32° SSE 15:57:13 10° E daylight
28 Jan - 17:38:18 10° SW 17:56:09 44° S 18:11:20 10° ESE visible
28 Jan - 19:53:07 10° WSW 20:10:16 41° SSW 20:22:50 10° SE visible
28 Jan - 22:10:41 10° W 22:22:24 23° SW 22:31:07 10° S visible
29 Jan - 14:14:23 10° S 14:26:47 23° SE 14:40:08 10° E daylight
29 Jan - 16:23:18 10° SW 16:40:08 40° SSE 16:56:15 10° ESE daylight
29 Jan - 18:36:35 10° WSW 18:54:37 45° S 19:09:06 10° ESE visible
29 Jan - 20:52:38 10° W 21:08:00 33° SSW 21:19:15 10° SSE visible
29 Jan - 23:13:50 10° WSW 23:18:53 12° SW 23:23:19 10° SSW visible
30 Jan - 13:04:28 10° SSE 13:12:09 14° SE 13:20:30 10° ESE daylight
30 Jan - 15:09:22 10° SSW 15:24:22 34° SSE 15:40:19 10° E daylight
30 Jan - 17:20:49 10° WSW 17:38:35 45° S 17:54:36 10° ESE visible
30 Jan - 19:35:29 10° WSW 19:52:51 41° SSW 20:06:15 10° SE visible
30 Jan - 21:53:10 10° W 22:05:06 22° SW 22:14:19 10° S visible
31 Jan - 13:56:44 10° S 14:09:08 25° SE 14:23:11 10° E daylight
31 Jan - 16:05:57 10° SW 16:22:29 42° SSE 16:39:19 10° ESE daylight
31 Jan - 18:19:06 10° WSW 18:37:05 45° S 18:52:23 10° ESE visible
31 Jan - 20:35:02 10° W 20:50:35 32° SSW 21:02:32 10° SSE visible
31 Jan - 22:57:19 10° WSW 23:01:36 11° SW 23:05:28 10° SW visible
01 Feb - 12:46:13 10° SSE 12:54:33 16° SE 13:04:01 10° ESE daylight
01 Feb - 14:52:04 10° SSW 15:06:43 36° SSE 15:23:13 10° E daylight
01 Feb - 17:03:32 10° WSW 17:20:57 46° S 17:37:43 10° ESE visible
01 Feb - 19:17:59 10° W 19:35:20 40° SSW 19:49:30 10° SE visible
01 Feb - 21:35:46 10° W 21:47:42 21° SW 21:57:18 10° S visible
02 Feb - 13:39:22 10° SSW 13:51:31 27° SE 14:06:02 10° E daylight
02 Feb - 15:48:47 10° SW 16:04:51 43° SSE 16:22:15 10° ESE daylight
02 Feb - 18:01:47 10° WSW 18:19:28 45° S 18:35:31 10° SE visible
02 Feb - 20:17:35 10° W 20:33:05 31° SSW 20:45:38 10° SSE visible
02 Feb - 22:41:47 10° WSW 22:44:12 10° SW 22:46:30 10° SW visible
03 Feb - 12:28:29 10° SSE 12:37:01 17° SE 12:47:09 10° E daylight
03 Feb - 14:34:59 10° SW 14:49:05 37° SSE 15:05:57 10° E daylight
03 Feb - 16:46:23 10° WSW 17:03:19 46° S 17:20:40 10° ESE daylight
03 Feb - 19:00:39 10° W 19:17:44 39° SSW 19:32:35 10° SE visible
03 Feb - 21:18:33 10° W 21:30:12 20° SW 21:40:00 10° S visible
